| time (UTC) | temp F | wind direction | speed MPH | gust MPH | rain 1hr in | rain 24hr in | rain mn in | humidity % | barometer mb |
| 20260504004403 | 69 | 227 | 7.0 | 15.0 | 0.00 | 0.00 | 0.00 | 51 | 1029.4 |
| 20260504003403 | 69 | 177 | 6.0 | 14.0 | 0.00 | 0.00 | 0.00 | 52 | 1029.2 |
| 20260504002903 | 69 | 230 | 9.0 | 13.0 | 0.00 | 0.00 | 0.00 | 50 | 1029.0 |
| 20260504001903 | 70 | 199 | 7.0 | 10.0 | 0.00 | 0.00 | 0.00 | 51 | 1028.8 |
| 20260504001403 | 70 | 189 | 6.0 | 10.0 | 0.00 | 0.00 | 0.00 | 50 | 1028.8 |
| 20260504000905 | 70 | 181 | 7.0 | 12.0 | 0.00 | 0.00 | 0.00 | 51 | 1028.8 |
| 20260504000403 | 70 | 218 | 6.0 | 12.0 | 0.00 | 0.00 | 0.00 | 50 | 1028.9 |
| 20260503235904 | 70 | 245 | 7.0 | 12.0 | 0.00 | 0.00 | 0.00 | 50 | 1028.8 |
| 20260503235403 | 71 | 232 | 4.0 | 10.0 | 0.00 | 0.00 | 0.00 | 51 | 1028.8 |
| 20260503234903 | 71 | 165 | 5.0 | 10.0 | 0.00 | 0.00 | 0.00 | 52 | 1029.0 |
| 20260503234403 | 71 | 206 | 3.0 | 12.0 | 0.00 | 0.00 | 0.00 | 53 | 1029.2 |
| 20260503233903 | 70 | 196 | 2.0 | 10.0 | 0.00 | 0.00 | 0.00 | 53 | 1029.2 |
| 20260503233405 | 70 | 163 | 3.0 | 7.0 | 0.00 | 0.00 | 0.00 | 53 | 1029.2 |
| 20260503232903 | 70 | 216 | 8.0 | 12.0 | 0.00 | 0.00 | 0.00 | 52 | 1029.2 |
| 20260503232403 | 70 | 232 | 3.0 | 6.0 | 0.00 | 0.00 | 0.00 | 52 | 1029.2 |
| 20260503231404 | 70 | 225 | 6.0 | 10.0 | 0.00 | 0.00 | 0.00 | 52 | 1029.4 |
| 20260503230903 | 70 | 196 | 2.0 | 12.0 | 0.00 | 0.00 | 0.00 | 52 | 1029.5 |
| 20260503230403 | 70 | 206 | 7.0 | 13.0 | 0.00 | 0.00 | 0.00 | 53 | 1029.5 |
| 20260503225903 | 70 | 177 | 4.0 | 8.0 | 0.00 | 0.00 | 0.00 | 54 | 1029.5 |
| 20260503224903 | 70 | 183 | 4.0 | 10.0 | 0.00 | 0.00 | 0.00 | 54 | 1029.6 |
| 20260503223903 | 70 | 158 | 5.0 | 10.0 | 0.00 | 0.00 | 0.00 | 53 | 1029.8 |
| 20260503223403 | 70 | 194 | 4.0 | 9.0 | 0.00 | 0.00 | 0.00 | 55 | 1029.9 |
| 20260503222404 | 70 | 197 | 3.0 | 7.0 | 0.00 | 0.00 | 0.00 | 56 | 1029.9 |
| 20260503221903 | 69 | 189 | 3.0 | 12.0 | 0.00 | 0.00 | 0.00 | 58 | 1029.9 |
| 20260503221403 | 69 | 201 | 5.0 | 12.0 | 0.00 | 0.00 | 0.00 | 57 | 1030.0 |
| 20260503220903 | 69 | 198 | 1.0 | 9.0 | 0.00 | 0.00 | 0.00 | 57 | 1030.1 |
| 20260503220403 | 69 | 206 | 6.0 | 10.0 | 0.00 | 0.00 | 0.00 | 59 | 1030.1 |
| 20260503215903 | 68 | 183 | 6.0 | 12.0 | 0.00 | 0.00 | 0.00 | 58 | 1030.2 |
| 20260503214904 | 67 | 208 | 6.0 | 12.0 | 0.00 | 0.00 | 0.00 | 60 | 1030.4 |
| 20260503214403 | 67 | 189 | 3.0 | 10.0 | 0.00 | 0.00 | 0.00 | 62 | 1030.4 |
| 20260503213903 | 67 | 172 | 5.0 | 12.0 | 0.00 | 0.00 | 0.00 | 62 | 1030.4 |
| 20260503213404 | 66 | 213 | 5.0 | 12.0 | 0.00 | 0.00 | 0.00 | 62 | 1030.4 |
| 20260503212903 | 66 | 213 | 5.0 | 10.0 | 0.00 | 0.00 | 0.00 | 64 | 1030.5 |
| 20260503211904 | 66 | 203 | 3.0 | 10.0 | 0.00 | 0.00 | 0.00 | 65 | 1030.5 |
| 20260503211403 | 66 | 189 | 4.0 | 9.0 | 0.00 | 0.00 | 0.00 | 65 | 1030.5 |
| 20260503210404 | 65 | 203 | 6.0 | 9.0 | 0.00 | 0.00 | 0.00 | 65 | 1030.5 |
| 20260503205904 | 65 | 209 | 7.0 | 12.0 | 0.00 | 0.00 | 0.00 | 66 | 1030.6 |
| 20260503205403 | 65 | 222 | 6.0 | 10.0 | 0.00 | 0.00 | 0.00 | 67 | 1030.6 |
| 20260503204403 | 64 | 192 | 6.0 | 12.0 | 0.00 | 0.00 | 0.00 | 67 | 1030.6 |
| 20260503203904 | 64 | 224 | 6.0 | 9.0 | 0.00 | 0.00 | 0.00 | 68 | 1030.7 |
| 20260503203403 | 64 | 209 | 6.0 | 10.0 | 0.00 | 0.00 | 0.00 | 69 | 1030.7 |
| 20260503202903 | 64 | 221 | 6.0 | 9.0 | 0.00 | 0.00 | 0.00 | 69 | 1030.8 |
| 20260503202404 | 64 | 206 | 7.0 | 13.0 | 0.00 | 0.00 | 0.00 | 69 | 1030.7 |
| 20260503200903 | 64 | 219 | 5.0 | 12.0 | 0.00 | 0.00 | 0.00 | 70 | 1030.7 |
| 20260503200404 | 63 | 233 | 5.0 | 12.0 | 0.00 | 0.00 | 0.00 | 70 | 1030.7 |
| 20260503195904 | 63 | 221 | 7.0 | 12.0 | 0.00 | 0.00 | 0.00 | 70 | 1030.7 |
| 20260503195403 | 63 | 226 | 5.0 | 12.0 | 0.00 | 0.00 | 0.00 | 70 | 1030.8 |
| 20260503193903 | 63 | 258 | 7.0 | 12.0 | 0.00 | 0.00 | 0.00 | 71 | 1031.0 |
| 20260503193404 | 63 | 223 | 8.0 | 12.0 | 0.00 | 0.00 | 0.00 | 70 | 1031.1 |
| 20260503192903 | 63 | 213 | 6.0 | 9.0 | 0.00 | 0.00 | 0.00 | 70 | 1031.2 |
| 20260503192403 | 63 | 236 | 6.0 | 10.0 | 0.00 | 0.00 | 0.00 | 71 | 1031.2 |
| 20260503191903 | 63 | 224 | 5.0 | 10.0 | 0.00 | 0.00 | 0.00 | 72 | 1031.2 |
| 20260503191403 | 63 | 226 | 6.0 | 9.0 | 0.00 | 0.00 | 0.00 | 72 | 1031.2 |
| 20260503190903 | 62 | 220 | 5.0 | 12.0 | 0.00 | 0.00 | 0.00 | 73 | 1031.3 |
| 20260503190404 | 62 | 215 | 6.0 | 9.0 | 0.00 | 0.00 | 0.00 | 74 | 1031.3 |
| 20260503185903 | 62 | 215 | 6.0 | 9.0 | 0.00 | 0.00 | 0.00 | 75 | 1031.5 |
| 20260503185403 | 62 | 216 | 6.0 | 9.0 | 0.00 | 0.00 | 0.00 | 76 | 1031.5 |
| 20260503184404 | 61 | 226 | 6.0 | 10.0 | 0.00 | 0.00 | 0.00 | 77 | 1031.5 |
| 20260503183904 | 61 | 254 | 6.0 | 9.0 | 0.00 | 0.00 | 0.00 | 76 | 1031.5 |
| 20260503183403 | 61 | 217 | 5.0 | 9.0 | 0.00 | 0.00 | 0.00 | 76 | 1031.5 |
| 20260503182904 | 61 | 223 | 8.0 | 9.0 | 0.00 | 0.00 | 0.00 | 76 | 1031.5 |
| 20260503181404 | 61 | 228 | 7.0 | 13.0 | 0.00 | 0.00 | 0.00 | 78 | 1031.4 |
| 20260503180904 | 61 | 230 | 8.0 | 12.0 | 0.00 | 0.00 | 0.00 | 78 | 1031.5 |
| 20260503180403 | 61 | 223 | 7.0 | 12.0 | 0.00 | 0.00 | 0.00 | 78 | 1031.4 |
| 20260503175904 | 61 | 229 | 5.0 | 10.0 | 0.00 | 0.00 | 0.00 | 79 | 1031.4 |
| 20260503174904 | 61 | 211 | 7.0 | 12.0 | 0.00 | 0.00 | 0.00 | 79 | 1031.3 |
| 20260503174403 | 61 | 208 | 7.0 | 12.0 | 0.00 | 0.00 | 0.00 | 79 | 1031.3 |
| 20260503173904 | 61 | 217 | 5.0 | 9.0 | 0.00 | 0.00 | 0.00 | 80 | 1031.3 |
| 20260503173404 | 61 | 227 | 6.0 | 9.0 | 0.00 | 0.00 | 0.00 | 81 | 1031.3 |
| 20260503172903 | 61 | 210 | 5.0 | 10.0 | 0.00 | 0.00 | 0.00 | 82 | 1031.2 |
| 20260503172404 | 60 | 220 | 8.0 | 12.0 | 0.00 | 0.00 | 0.00 | 82 | 1031.1 |
| 20260503171903 | 60 | 217 | 6.0 | 9.0 | 0.00 | 0.00 | 0.00 | 83 | 1031.1 |
| 20260503171404 | 60 | 212 | 6.0 | 9.0 | 0.00 | 0.00 | 0.00 | 84 | 1031.1 |
| 20260503170904 | 60 | 218 | 3.0 | 10.0 | 0.00 | 0.00 | 0.00 | 86 | 1031.1 |
| 20260503170404 | 59 | 211 | 5.0 | 7.0 | 0.00 | 0.00 | 0.00 | 87 | 1031.1 |
| 20260503150403 | 57 | 228 | 3.0 | 5.0 | 0.00 | 0.00 | 0.00 | 93 | 1030.7 |
| 20260503131403 | 57 | 234 | 3.0 | 5.0 | 0.00 | 0.00 | 0.00 | 92 | 1030.0 |
| 20260503130903 | 57 | 246 | 3.0 | 6.0 | 0.00 | 0.00 | 0.00 | 92 | 1029.8 |
| 20260503130404 | 57 | 224 | 5.0 | 7.0 | 0.00 | 0.00 | 0.00 | 92 | 1029.6 |
| 20260503110404 | 57 | 219 | 4.0 | 6.0 | 0.00 | 0.00 | 0.00 | 92 | 1029.4 |
| 20260503090403 | 58 | 230 | 6.0 | 8.0 | 0.00 | 0.00 | 0.00 | 89 | 1030.1 |
| 20260503081403 | 59 | 192 | 4.0 | 8.0 | 0.00 | 0.00 | 0.00 | 85 | 1030.3 |
| 20260503080904 | 59 | 155 | 2.0 | 5.0 | 0.00 | 0.00 | 0.00 | 85 | 1030.2 |
| 20260503072904 | 62 | 194 | 2.0 | 7.0 | 0.00 | 0.00 | 0.00 | 80 | 1030.1 |
| 20260503072403 | 62 | 180 | 4.0 | 9.0 | 0.00 | 0.00 | 0.00 | 80 | 1030.0 |
| 20260503071904 | 62 | 207 | 3.0 | 7.0 | 0.00 | 0.00 | 0.00 | 79 | 1029.9 |
| 20260503071403 | 63 | 198 | 5.0 | 9.0 | 0.00 | 0.00 | 0.00 | 79 | 1029.9 |
| 20260503070904 | 63 | 190 | 4.0 | 8.0 | 0.00 | 0.00 | 0.00 | 78 | 1030.0 |
| 20260503070403 | 63 | 213 | 4.0 | 7.0 | 0.00 | 0.00 | 0.00 | 78 | 1030.0 |
| 20260503054904 | 67 | 164 | 2.0 | 3.0 | 0.00 | 0.00 | 0.00 | 69 | 1029.6 |
| 20260503053904 | 67 | 309 | 0.0 | 1.0 | 0.00 | 0.00 | 0.00 | 68 | 1029.6 |
| 20260503053404 | 67 | 309 | 0.0 | 3.0 | 0.00 | 0.00 | 0.00 | 68 | 1029.4 |
| 20260503052903 | 68 | 355 | 1.0 | 3.0 | 0.00 | 0.00 | 0.00 | 67 | 1029.4 |
| 20260503052404 | 68 | 200 | 0.0 | 0.0 | 0.00 | 0.00 | 0.00 | 67 | 1029.4 |
| 20260503051904 | 68 | 200 | 0.0 | 0.0 | 0.00 | 0.00 | 0.00 | 67 | 1029.4 |
| 20260503051404 | 68 | 200 | 0.0 | 0.0 | 0.00 | 0.00 | 0.00 | 66 | 1029.4 |
| 20260503050903 | 68 | 200 | 0.0 | 0.0 | 0.00 | 0.00 | 0.00 | 65 | 1029.3 |
| 20260503050403 | 69 | 200 | 0.0 | 0.0 | 0.00 | 0.00 | 0.00 | 65 | 1029.3 |
| 20260503045904 | 69 | 200 | 0.0 | 0.0 | 0.00 | 0.00 | 0.00 | 65 | 1029.2 |
| 20260503045404 | 69 | 200 | 0.0 | 0.0 | 0.00 | 0.00 | 0.00 | 64 | 1029.1 |
| 20260503044403 | 69 | 200 | 0.0 | 3.0 | 0.00 | 0.00 | 0.00 | 64 | 1029.1 |
| 20260503043903 | 69 | 191 | 3.0 | 8.0 | 0.00 | 0.00 | 0.00 | 64 | 1029.0 |
| 20260503042903 | 70 | 210 | 4.0 | 7.0 | 0.00 | 0.00 | 0.00 | 63 | 1028.6 |
| 20260503042403 | 70 | 207 | 4.0 | 8.0 | 0.00 | 0.00 | 0.00 | 62 | 1028.6 |
| 20260503041903 | 70 | 200 | 3.0 | 7.0 | 0.00 | 0.00 | 0.00 | 61 | 1028.5 |
| 20260503041403 | 71 | 205 | 3.0 | 5.0 | 0.00 | 0.00 | 0.00 | 61 | 1028.4 |
| 20260503040904 | 71 | 201 | 3.0 | 7.0 | 0.00 | 0.00 | 0.00 | 60 | 1028.4 |
| 20260503035903 | 72 | 190 | 2.0 | 3.0 | 0.00 | 0.00 | 0.00 | 59 | 1028.3 |
| 20260503035403 | 72 | 200 | 2.0 | 3.0 | 0.00 | 0.00 | 0.00 | 58 | 1028.3 |
| 20260503034903 | 72 | 165 | 1.0 | 3.0 | 0.00 | 0.00 | 0.00 | 58 | 1028.1 |
| 20260503034403 | 72 | 163 | 1.0 | 3.0 | 0.00 | 0.00 | 0.00 | 57 | 1028.1 |
| 20260503032403 | 73 | 213 | 4.0 | 6.0 | 0.00 | 0.00 | 0.00 | 55 | 1028.0 |
| 20260503031904 | 74 | 236 | 3.0 | 5.0 | 0.00 | 0.00 | 0.00 | 55 | 1028.0 |
| 20260503031403 | 74 | 224 | 1.0 | 3.0 | 0.00 | 0.00 | 0.00 | 54 | 1027.9 |
| 20260503030903 | 74 | 186 | 0.0 | 3.0 | 0.00 | 0.00 | 0.00 | 54 | 1027.9 |
| 20260503025903 | 74 | 184 | 0.0 | 2.0 | 0.00 | 0.00 | 0.00 | 53 | 1027.8 |
| 20260503025403 | 74 | 186 | 1.0 | 3.0 | 0.00 | 0.00 | 0.00 | 53 | 1027.8 |
| 20260503024903 | 75 | 222 | 2.0 | 3.0 | 0.00 | 0.00 | 0.00 | 53 | 1027.8 |
| 20260503024404 | 75 | 206 | 4.0 | 7.0 | 0.00 | 0.00 | 0.00 | 52 | 1027.7 |
| 20260503023903 | 75 | 220 | 5.0 | 8.0 | 0.00 | 0.00 | 0.00 | 51 | 1027.7 |
| 20260503023403 | 76 | 220 | 4.0 | 8.0 | 0.00 | 0.00 | 0.00 | 50 | 1027.7 |
| 20260503022903 | 76 | 197 | 2.0 | 6.0 | 0.00 | 0.00 | 0.00 | 49 | 1027.5 |
| 20260503021903 | 76 | 214 | 6.0 | 9.0 | 0.00 | 0.00 | 0.00 | 48 | 1027.4 |
| 20260503021403 | 77 | 220 | 6.0 | 8.0 | 0.00 | 0.00 | 0.00 | 48 | 1027.4 |
| 20260503020903 | 77 | 210 | 3.0 | 9.0 | 0.00 | 0.00 | 0.00 | 48 | 1027.4 |
| 20260503020403 | 77 | 202 | 5.0 | 9.0 | 0.00 | 0.00 | 0.00 | 47 | 1027.3 |
| 20260503015403 | 78 | 190 | 5.0 | 10.0 | 0.00 | 0.00 | 0.00 | 49 | 1027.3 |
| 20260503014903 | 78 | 191 | 5.0 | 12.0 | 0.00 | 0.00 | 0.00 | 49 | 1027.2 |
| 20260503014403 | 79 | 199 | 6.0 | 10.0 | 0.00 | 0.00 | 0.00 | 48 | 1027.2 |
| 20260503013903 | 79 | 193 | 5.0 | 9.0 | 0.00 | 0.00 | 0.00 | 47 | 1027.2 |
| 20260503013404 | 79 | 198 | 3.0 | 6.0 | 0.00 | 0.00 | 0.00 | 47 | 1027.2 |
| 20260503012903 | 80 | 205 | 6.0 | 9.0 | 0.00 | 0.00 | 0.00 | 46 | 1027.3 |
| 20260503012403 | 80 | 185 | 5.0 | 10.0 | 0.00 | 0.00 | 0.00 | 45 | 1027.2 |
| 20260503011903 | 80 | 193 | 4.0 | 10.0 | 0.00 | 0.00 | 0.00 | 45 | 1027.0 |
| 20260503011404 | 80 | 193 | 7.0 | 15.0 | 0.00 | 0.00 | 0.00 | 44 | 1026.9 |
| 20260503010903 | 80 | 214 | 10.0 | 15.0 | 0.00 | 0.00 | 0.00 | 43 | 1027.0 |
| 20260503010404 | 81 | 220 | 6.0 | 15.0 | 0.00 | 0.00 | 0.00 | 43 | 1026.9 |
| 20260503005903 | 81 | 205 | 10.0 | 15.0 | 0.00 | 0.00 | 0.00 | 43 | 1026.9 |
| 20260503005404 | 81 | 218 | 8.0 | 17.0 | 0.00 | 0.00 | 0.00 | 44 | 1026.8 |
| 20260503004903 | 82 | 198 | 10.0 | 16.0 | 0.00 | 0.00 | 0.00 | 43 | 1026.8 |